Data supplied by UK-AIR on 1/5/2024
All Data GMT hour ending 
Status: R =Ratified P=Provisional,P*=As supplied
,,Dumbarton Roadside,,,,,,,,,,,,,,,,,,,,,,,
Date,time,"Nitric oxide",status,unit,"Nitrogen dioxide",status,unit,"Nitrogen oxides as nitrogen dioxide",status,unit
 
01-01-2023,01:00,1.41247,R,ugm-3,4.27284,R,ugm-3,6.43860,R,ugm-3
01-01-2023,02:00,1.88330,R,ugm-3,4.80959,R,ugm-3,7.69728,R,ugm-3
01-01-2023,03:00,1.75775,R,ugm-3,5.05052,R,ugm-3,7.74569,R,ugm-3
01-01-2023,04:00,1.82052,R,ugm-3,5.05108,R,ugm-3,7.84251,R,ugm-3
01-01-2023,05:00,1.44386,R,ugm-3,4.46676,R,ugm-3,6.68066,R,ugm-3
01-01-2023,06:00,0.87887,R,ugm-3,3.15459,R,ugm-3,4.50218,R,ugm-3
01-01-2023,07:00,1.31831,R,ugm-3,3.78789,R,ugm-3,5.80927,R,ugm-3
01-01-2023,08:00,1.03581,R,ugm-3,5.04402,R,ugm-3,6.63224,R,ugm-3
01-01-2023,09:00,1.66358,R,ugm-3,7.76066,R,ugm-3,10.31145,R,ugm-3
01-01-2023,10:00,3.13883,R,ugm-3,11.79201,R,ugm-3,16.60482,R,ugm-3
01-01-2023,11:00,3.48410,R,ugm-3,14.55452,R,ugm-3,19.89673,R,ugm-3
01-01-2023,12:00,4.89658,R,ugm-3,16.01954,R,ugm-3,23.52752,R,ugm-3
01-01-2023,13:00,6.02656,R,ugm-3,19.37004,R,ugm-3,28.61063,R,ugm-3
01-01-2023,14:00,0.69054,R,ugm-3,5.96071,R,ugm-3,7.01953,R,ugm-3
01-01-2023,15:00,0.50221,R,ugm-3,8.86365,R,ugm-3,9.63370,R,ugm-3
01-01-2023,16:00,1.19276,R,ugm-3,5.72318,R,ugm-3,7.55204,R,ugm-3
01-01-2023,17:00,2.29135,R,ugm-3,8.39564,R,ugm-3,11.90899,R,ugm-3
01-01-2023,18:00,7.03098,R,ugm-3,16.66809,R,ugm-3,27.44878,R,ugm-3
01-01-2023,19:00,5.71267,R,ugm-3,16.07530,R,ugm-3,24.83461,R,ugm-3
01-01-2023,20:00,6.02656,R,ugm-3,20.72554,R,ugm-3,29.96613,R,ugm-3
01-01-2023,21:00,8.06680,R,ugm-3,24.61674,R,ugm-3,36.98565,R,ugm-3
01-01-2023,22:00,13.15170,R,ugm-3,40.15387,R,ugm-3,60.31954,R,ugm-3
01-01-2023,23:00,12.58671,R,ugm-3,34.77522,R,ugm-3,54.07457,R,ugm-3
01-01-2023,24:00,9.16539,R,ugm-3,31.69456,R,ugm-3,45.74796,R,ugm-3
02-01-2023,01:00,7.21947,R,ugm-3,25.37491,R,ugm-3,36.44460,R,ugm-3
02-01-2023,02:00,2.35417,R,ugm-3,15.84680,R,ugm-3,19.45648,R,ugm-3
02-01-2023,03:00,1.47528,R,ugm-3,8.86975,R,ugm-3,11.13182,R,ugm-3
02-01-2023,04:00,1.78917,R,ugm-3,8.58206,R,ugm-3,11.32542,R,ugm-3
02-01-2023,05:00,1.78917,R,ugm-3,7.51727,R,ugm-3,10.26063,R,ugm-3
02-01-2023,06:00,3.26445,R,ugm-3,17.79060,R,ugm-3,22.79603,R,ugm-3
02-01-2023,07:00,9.32253,R,ugm-3,26.07060,R,ugm-3,40.36494,R,ugm-3
02-01-2023,08:00,43.85040,R,ugm-3,47.22779,R,ugm-3,114.46413,R,ugm-3
02-01-2023,09:00,32.42481,R,ugm-3,47.03267,R,ugm-3,96.75002,R,ugm-3
02-01-2023,10:00,31.32620,R,ugm-3,40.77972,R,ugm-3,88.81255,R,ugm-3
02-01-2023,11:00,23.38479,R,ugm-3,35.33906,R,ugm-3,71.19524,R,ugm-3
02-01-2023,12:00,49.97125,R,ugm-3,46.02208,R,ugm-3,122.64360,R,ugm-3
02-01-2023,13:00,30.22758,R,ugm-3,41.54465,R,ugm-3,87.89296,R,ugm-3
02-01-2023,14:00,3.67251,R,ugm-3,15.76135,R,ugm-3,21.39245,R,ugm-3
02-01-2023,15:00,4.20612,R,ugm-3,20.60586,R,ugm-3,27.05516,R,ugm-3
02-01-2023,16:00,2.16584,R,ugm-3,21.45949,R,ugm-3,24.78039,R,ugm-3
02-01-2023,17:00,1.75778,R,ugm-3,27.74787,R,ugm-3,30.44310,R,ugm-3
02-01-2023,18:00,2.54251,R,ugm-3,38.69285,R,ugm-3,42.59130,R,ugm-3
02-01-2023,19:00,3.73529,R,ugm-3,40.54228,R,ugm-3,46.26964,R,ugm-3
02-01-2023,20:00,5.90113,R,ugm-3,27.15434,R,ugm-3,36.20261,R,ugm-3
02-01-2023,21:00,2.76223,R,ugm-3,22.33581,R,ugm-3,26.57117,R,ugm-3
02-01-2023,22:00,9.10280,R,ugm-3,29.84385,R,ugm-3,43.80128,R,ugm-3
02-01-2023,23:00,4.61418,R,ugm-3,23.12613,R,ugm-3,30.20111,R,ugm-3
02-01-2023,24:00,7.87863,R,ugm-3,27.89735,R,ugm-3,39.97775,R,ugm-3
03-01-2023,01:00,4.95956,R,ugm-3,27.42827,R,ugm-3,35.03282,R,ugm-3
03-01-2023,02:00,2.76229,R,ugm-3,18.70040,R,ugm-3,22.93585,R,ugm-3
03-01-2023,03:00,2.44839,R,ugm-3,13.27838,R,ugm-3,17.03253,R,ugm-3
03-01-2023,04:00,0.94169,R,ugm-3,5.37879,R,ugm-3,6.82269,R,ugm-3
03-01-2023,05:00,0.97308,R,ugm-3,5.13711,R,ugm-3,6.62914,R,ugm-3
03-01-2023,06:00,1.31837,R,ugm-3,4.60768,R,ugm-3,6.62914,R,ugm-3
03-01-2023,07:00,1.66365,R,ugm-3,6.44925,R,ugm-3,9.00015,R,ugm-3
03-01-2023,08:00,1.60087,R,ugm-3,7.70682,R,ugm-3,10.16146,R,ugm-3
03-01-2023,09:00,1.19281,R,ugm-3,7.41314,R,ugm-3,9.24209,R,ugm-3
03-01-2023,10:00,1.47531,R,ugm-3,9.15743,R,ugm-3,11.41954,R,ugm-3
03-01-2023,11:00,24.23280,R,ugm-3,43.65131,R,ugm-3,80.80776,R,ugm-3
03-01-2023,12:00,28.28206,R,ugm-3,40.87807,R,ugm-3,84.24329,R,ugm-3
03-01-2023,13:00,1.38114,R,ugm-3,14.18899,R,ugm-3,16.30672,R,ugm-3
03-01-2023,14:00,0.62779,R,ugm-3,4.21490,R,ugm-3,5.17750,R,ugm-3
03-01-2023,15:00,2.29144,R,ugm-3,10.08350,R,ugm-3,13.59699,R,ugm-3
03-01-2023,16:00,6.74877,R,ugm-3,22.36223,R,ugm-3,32.71021,R,ugm-3
03-01-2023,17:00,20.05798,R,ugm-3,38.63308,R,ugm-3,69.38822,R,ugm-3
03-01-2023,18:00,14.03117,R,ugm-3,29.82538,R,ugm-3,51.33954,R,ugm-3
03-01-2023,19:00,13.71727,R,ugm-3,29.53248,R,ugm-3,50.56533,R,ugm-3
03-01-2023,20:00,7.87880,R,ugm-3,22.46829,R,ugm-3,34.54895,R,ugm-3
03-01-2023,21:00,5.96403,R,ugm-3,17.61378,R,ugm-3,26.75850,R,ugm-3
03-01-2023,22:00,7.18823,R,ugm-3,20.43033,R,ugm-3,31.45212,R,ugm-3
03-01-2023,23:00,3.70398,R,ugm-3,14.74033,R,ugm-3,20.41968,R,ugm-3
03-01-2023,24:00,1.85199,R,ugm-3,8.67664,R,ugm-3,11.51632,R,ugm-3
04-01-2023,01:00,0.40807,R,ugm-3,2.13176,R,ugm-3,2.75746,R,ugm-3
04-01-2023,02:00,0.53364,R,ugm-3,1.45547,R,ugm-3,2.27370,R,ugm-3
04-01-2023,03:00,0.72198,R,ugm-3,1.16668,R,ugm-3,2.27370,R,ugm-3
04-01-2023,04:00,0.81615,R,ugm-3,1.60281,R,ugm-3,2.85422,R,ugm-3
04-01-2023,05:00,0.81615,R,ugm-3,1.36092,R,ugm-3,2.61233,R,ugm-3
04-01-2023,06:00,0.69059,R,ugm-3,1.79533,R,ugm-3,2.85422,R,ugm-3
04-01-2023,07:00,0.97310,R,ugm-3,1.74917,R,ugm-3,3.24123,R,ugm-3
04-01-2023,08:00,1.13005,R,ugm-3,1.75039,R,ugm-3,3.48311,R,ugm-3
04-01-2023,09:00,1.53812,R,ugm-3,3.44676,R,ugm-3,5.80519,R,ugm-3
04-01-2023,10:00,3.89240,R,ugm-3,6.36776,R,ugm-3,12.33602,R,ugm-3
04-01-2023,11:00,2.47983,R,ugm-3,6.21159,R,ugm-3,10.01395,R,ugm-3
04-01-2023,12:00,4.26908,R,ugm-3,12.65966,R,ugm-3,19.20549,R,ugm-3
04-01-2023,13:00,10.45297,R,ugm-3,19.77098,R,ugm-3,35.79864,R,ugm-3
04-01-2023,14:00,16.00905,R,ugm-3,26.78064,R,ugm-3,51.32751,R,ugm-3
04-01-2023,15:00,18.92835,R,ugm-3,32.89891,R,ugm-3,61.92198,R,ugm-3
04-01-2023,16:00,14.40815,R,ugm-3,34.55675,R,ugm-3,56.64894,R,ugm-3
04-01-2023,17:00,37.66836,R,ugm-3,55.83078,R,ugm-3,113.58813,R,ugm-3
04-01-2023,18:00,55.37249,R,ugm-3,64.72536,R,ugm-3,149.62866,R,ugm-3
04-01-2023,19:00,46.92850,R,ugm-3,57.64474,R,ugm-3,129.60077,R,ugm-3
04-01-2023,20:00,47.14823,R,ugm-3,54.26010,R,ugm-3,126.55304,R,ugm-3
04-01-2023,21:00,31.20196,R,ugm-3,48.71725,R,ugm-3,96.55959,R,ugm-3
04-01-2023,22:00,27.59207,R,ugm-3,50.52734,R,ugm-3,92.83459,R,ugm-3
04-01-2023,23:00,24.64138,R,ugm-3,44.50557,R,ugm-3,82.28850,R,ugm-3
04-01-2023,24:00,5.46191,R,ugm-3,28.53649,R,ugm-3,36.91130,R,ugm-3
05-01-2023,01:00,1.60094,R,ugm-3,16.79462,R,ugm-3,19.24936,R,ugm-3
05-01-2023,02:00,2.16598,R,ugm-3,13.99363,R,ugm-3,17.31475,R,ugm-3
05-01-2023,03:00,1.13008,R,ugm-3,9.00432,R,ugm-3,10.73708,R,ugm-3
05-01-2023,04:00,0.87895,R,ugm-3,5.52016,R,ugm-3,6.86786,R,ugm-3
05-01-2023,05:00,0.65921,R,ugm-3,6.43747,R,ugm-3,7.44824,R,ugm-3
05-01-2023,06:00,12.65056,R,ugm-3,22.72885,R,ugm-3,42.12610,R,ugm-3
05-01-2023,07:00,3.13910,R,ugm-3,11.82442,R,ugm-3,16.63763,R,ugm-3
05-01-2023,08:00,1.91485,R,ugm-3,12.49244,R,ugm-3,15.42850,R,ugm-3
05-01-2023,09:00,4.08083,R,ugm-3,21.98811,R,ugm-3,28.24528,R,ugm-3
05-01-2023,10:00,2.79380,R,ugm-3,23.71970,R,ugm-3,28.00346,R,ugm-3
05-01-2023,11:00,2.47989,R,ugm-3,15.59201,R,ugm-3,19.39445,R,ugm-3
05-01-2023,12:00,1.50677,R,ugm-3,8.18491,R,ugm-3,10.49525,R,ugm-3
05-01-2023,13:00,5.08534,R,ugm-3,14.69242,R,ugm-3,22.48982,R,ugm-3
05-01-2023,14:00,2.00902,R,ugm-3,14.04083,R,ugm-3,17.12129,R,ugm-3
05-01-2023,15:00,1.63233,R,ugm-3,18.53600,R,ugm-3,21.03887,R,ugm-3
05-01-2023,16:00,0.75338,R,ugm-3,12.14526,R,ugm-3,13.30043,R,ugm-3
05-01-2023,17:00,0.91034,R,ugm-3,4.64982,R,ugm-3,6.04565,R,ugm-3
05-01-2023,18:00,0.75338,R,ugm-3,3.14933,R,ugm-3,4.30450,R,ugm-3
05-01-2023,19:00,1.16147,R,ugm-3,3.15236,R,ugm-3,4.93325,R,ugm-3
05-01-2023,20:00,0.62782,R,ugm-3,2.37456,R,ugm-3,3.33720,R,ugm-3
05-01-2023,21:00,0.78477,R,ugm-3,1.98880,R,ugm-3,3.19210,R,ugm-3
05-01-2023,22:00,1.13008,R,ugm-3,1.65281,R,ugm-3,3.38557,R,ugm-3
05-01-2023,23:00,0.84756,R,ugm-3,1.55398,R,ugm-3,2.85355,R,ugm-3
05-01-2023,24:00,0.65921,R,ugm-3,1.31076,R,ugm-3,2.32153,R,ugm-3
06-01-2023,01:00,0.53366,R,ugm-3,1.16425,R,ugm-3,1.98251,R,ugm-3
06-01-2023,02:00,0.47087,R,ugm-3,0.87368,R,ugm-3,1.59568,R,ugm-3
06-01-2023,03:00,0.72201,R,ugm-3,1.50405,R,ugm-3,2.61111,R,ugm-3
06-01-2023,04:00,0.59644,R,ugm-3,1.16469,R,ugm-3,2.07922,R,ugm-3
06-01-2023,05:00,0.62783,R,ugm-3,1.06820,R,ugm-3,2.03086,R,ugm-3
06-01-2023,06:00,1.03592,R,ugm-3,1.21613,R,ugm-3,2.80452,R,ugm-3
06-01-2023,07:00,1.19288,R,ugm-3,1.12053,R,ugm-3,2.94959,R,ugm-3
06-01-2023,08:00,1.22427,R,ugm-3,2.18453,R,ugm-3,4.06173,R,ugm-3
06-01-2023,09:00,0.87897,R,ugm-3,2.32717,R,ugm-3,3.67490,R,ugm-3
06-01-2023,10:00,0.91036,R,ugm-3,3.29447,R,ugm-3,4.69033,R,ugm-3
06-01-2023,11:00,1.50680,R,ugm-3,3.73385,R,ugm-3,6.04423,R,ugm-3
06-01-2023,12:00,2.35437,R,ugm-3,4.61017,R,ugm-3,8.22016,R,ugm-3
06-01-2023,13:00,1.97767,R,ugm-3,3.97892,R,ugm-3,7.01131,R,ugm-3
06-01-2023,14:00,1.41262,R,ugm-3,5.18380,R,ugm-3,7.34979,R,ugm-3
06-01-2023,15:00,1.00453,R,ugm-3,3.63361,R,ugm-3,5.17387,R,ugm-3
06-01-2023,16:00,1.13010,R,ugm-3,6.43901,R,ugm-3,8.17181,R,ugm-3
06-01-2023,17:00,1.44401,R,ugm-3,9.34245,R,ugm-3,11.55658,R,ugm-3
06-01-2023,18:00,0.75340,R,ugm-3,9.14418,R,ugm-3,10.29938,R,ugm-3
06-01-2023,19:00,1.34984,R,ugm-3,12.38809,R,ugm-3,14.45781,R,ugm-3
06-01-2023,20:00,2.88803,R,ugm-3,17.86289,R,ugm-3,22.29114,R,ugm-3
06-01-2023,21:00,2.69968,R,ugm-3,13.55807,R,ugm-3,17.69752,R,ugm-3
06-01-2023,22:00,1.60097,R,ugm-3,10.60076,R,ugm-3,13.05555,R,ugm-3
06-01-2023,23:00,1.53819,R,ugm-3,8.76287,R,ugm-3,11.12139,R,ugm-3
06-01-2023,24:00,1.38123,R,ugm-3,6.58584,R,ugm-3,8.70370,R,ugm-3
07-01-2023,01:00,0.78481,R,ugm-3,5.61295,R,ugm-3,6.81630,R,ugm-3
07-01-2023,02:00,0.65924,R,ugm-3,3.72675,R,ugm-3,4.73757,R,ugm-3
07-01-2023,03:00,0.65924,R,ugm-3,2.61487,R,ugm-3,3.62569,R,ugm-3
07-01-2023,04:00,2.22885,R,ugm-3,5.52585,R,ugm-3,8.94337,R,ugm-3
07-01-2023,05:00,1.03595,R,ugm-3,4.74445,R,ugm-3,6.33288,R,ugm-3
07-01-2023,06:00,0.69063,R,ugm-3,3.77530,R,ugm-3,4.83426,R,ugm-3
07-01-2023,07:00,0.47088,R,ugm-3,3.09705,R,ugm-3,3.81906,R,ugm-3
07-01-2023,08:00,0.62785,R,ugm-3,4.98345,R,ugm-3,5.94614,R,ugm-3
07-01-2023,09:00,1.06734,R,ugm-3,8.08029,R,ugm-3,9.71685,R,ugm-3
07-01-2023,10:00,1.72658,R,ugm-3,13.40235,R,ugm-3,16.04973,R,ugm-3
07-01-2023,11:00,0.87898,R,ugm-3,14.60528,R,ugm-3,15.95304,R,ugm-3
07-01-2023,12:00,0.94177,R,ugm-3,13.39714,R,ugm-3,14.84116,R,ugm-3
07-01-2023,13:00,4.92859,R,ugm-3,9.79791,R,ugm-3,17.35498,R,ugm-3
07-01-2023,14:00,1.00455,R,ugm-3,4.98595,R,ugm-3,6.52624,R,ugm-3
07-01-2023,15:00,1.34987,R,ugm-3,6.77692,R,ugm-3,8.84669,R,ugm-3
07-01-2023,16:00,0.78481,R,ugm-3,3.77593,R,ugm-3,4.97928,R,ugm-3
07-01-2023,17:00,0.59645,R,ugm-3,3.43628,R,ugm-3,4.35083,R,ugm-3
07-01-2023,18:00,0.78481,R,ugm-3,4.50107,R,ugm-3,5.70442,R,ugm-3
07-01-2023,19:00,0.97316,R,ugm-3,3.72884,R,ugm-3,5.22100,R,ugm-3
07-01-2023,20:00,0.84759,R,ugm-3,2.32607,R,ugm-3,3.62569,R,ugm-3
07-01-2023,21:00,0.56506,R,ugm-3,2.08248,R,ugm-3,2.94890,R,ugm-3
07-01-2023,22:00,0.84759,R,ugm-3,2.27773,R,ugm-3,3.57735,R,ugm-3
07-01-2023,23:00,0.59645,R,ugm-3,2.37275,R,ugm-3,3.28729,R,ugm-3
07-01-2023,24:00,0.59645,R,ugm-3,2.03435,R,ugm-3,2.94890,R,ugm-3
08-01-2023,01:00,0.87900,R,ugm-3,1.45543,R,ugm-3,2.80321,R,ugm-3
08-01-2023,02:00,0.81622,R,ugm-3,1.26171,R,ugm-3,2.51322,R,ugm-3
08-01-2023,03:00,0.43950,R,ugm-3,1.06603,R,ugm-3,1.73992,R,ugm-3
08-01-2023,04:00,0.59647,R,ugm-3,0.97035,R,ugm-3,1.88492,R,ugm-3
08-01-2023,05:00,0.69065,R,ugm-3,0.82594,R,ugm-3,1.88492,R,ugm-3
08-01-2023,06:00,0.31393,R,ugm-3,1.40357,R,ugm-3,1.88492,R,ugm-3
08-01-2023,07:00,0.65925,R,ugm-3,0.92241,R,ugm-3,1.93325,R,ugm-3
08-01-2023,08:00,0.56507,R,ugm-3,1.30847,R,ugm-3,2.17491,R,ugm-3
08-01-2023,09:00,0.78482,R,ugm-3,1.45484,R,ugm-3,2.65822,R,ugm-3
08-01-2023,10:00,0.75343,R,ugm-3,2.95291,R,ugm-3,4.10815,R,ugm-3
08-01-2023,11:00,0.72204,R,ugm-3,2.61440,R,ugm-3,3.72150,R,ugm-3
08-01-2023,12:00,0.94179,R,ugm-3,2.27745,R,ugm-3,3.72150,R,ugm-3
08-01-2023,13:00,1.03597,R,ugm-3,1.74639,R,ugm-3,3.33486,R,ugm-3
08-01-2023,14:00,0.97318,R,ugm-3,2.13265,R,ugm-3,3.62484,R,ugm-3
08-01-2023,15:00,1.06736,R,ugm-3,2.71321,R,ugm-3,4.34981,R,ugm-3
08-01-2023,16:00,0.62786,R,ugm-3,3.04879,R,ugm-3,4.01149,R,ugm-3
08-01-2023,17:00,0.84761,R,ugm-3,2.80850,R,ugm-3,4.10815,R,ugm-3
08-01-2023,18:00,0.94179,R,ugm-3,3.00242,R,ugm-3,4.44647,R,ugm-3
08-01-2023,19:00,1.09875,R,ugm-3,2.61675,R,ugm-3,4.30148,R,ugm-3
08-01-2023,20:00,1.00457,R,ugm-3,5.27438,R,ugm-3,6.81470,R,ugm-3
08-01-2023,21:00,2.41726,R,ugm-3,15.62608,R,ugm-3,19.33249,R,ugm-3
08-01-2023,22:00,6.84366,R,ugm-3,29.52478,R,ugm-3,40.01825,R,ugm-3
08-01-2023,23:00,5.99605,R,ugm-3,27.15126,R,ugm-3,36.34508,R,ugm-3
08-01-2023,24:00,9.38649,R,ugm-3,35.92038,R,ugm-3,50.31280,R,ugm-3
09-01-2023,01:00,0.31394,R,ugm-3,5.94518,R,ugm-3,6.42655,R,ugm-3
09-01-2023,02:00,1.06738,R,ugm-3,13.53581,R,ugm-3,15.17244,R,ugm-3
09-01-2023,03:00,1.03599,R,ugm-3,2.51870,R,ugm-3,4.10719,R,ugm-3
09-01-2023,04:00,0.87902,R,ugm-3,3.43586,R,ugm-3,4.78367,R,ugm-3
09-01-2023,05:00,2.29173,R,ugm-3,11.80346,R,ugm-3,15.31740,R,ugm-3
09-01-2023,06:00,5.24273,R,ugm-3,22.78934,R,ugm-3,30.82809,R,ugm-3
09-01-2023,07:00,8.38209,R,ugm-3,20.15012,R,ugm-3,33.00248,R,ugm-3
09-01-2023,08:00,6.87520,R,ugm-3,17.14547,R,ugm-3,27.68730,R,ugm-3
09-01-2023,09:00,2.95100,R,ugm-3,8.18333,R,ugm-3,12.70813,R,ugm-3
09-01-2023,10:00,2.29173,R,ugm-3,5.95676,R,ugm-3,9.47070,R,ugm-3
09-01-2023,11:00,3.07657,R,ugm-3,9.63366,R,ugm-3,14.35101,R,ugm-3
09-01-2023,12:00,1.25574,R,ugm-3,5.99901,R,ugm-3,7.92446,R,ugm-3
09-01-2023,13:00,1.41271,R,ugm-3,3.82554,R,ugm-3,5.99167,R,ugm-3
09-01-2023,14:00,1.31853,R,ugm-3,3.82499,R,ugm-3,5.84671,R,ugm-3
09-01-2023,15:00,18.83617,R,ugm-3,33.74086,R,ugm-3,62.62257,R,ugm-3
09-01-2023,16:00,23.57660,R,ugm-3,39.51866,R,ugm-3,75.66894,R,ugm-3
09-01-2023,17:00,17.10952,R,ugm-3,23.92182,R,ugm-3,50.15604,R,ugm-3
09-01-2023,18:00,17.32927,R,ugm-3,31.41268,R,ugm-3,57.98386,R,ugm-3
09-01-2023,19:00,10.29710,R,ugm-3,22.62564,R,ugm-3,38.41431,R,ugm-3
09-01-2023,20:00,3.23354,R,ugm-3,12.63041,R,ugm-3,17.58844,R,ugm-3
09-01-2023,21:00,2.82543,R,ugm-3,7.02292,R,ugm-3,11.35517,R,ugm-3
09-01-2023,22:00,1.60107,R,ugm-3,6.62919,R,ugm-3,9.08414,R,ugm-3
09-01-2023,23:00,0.91041,R,ugm-3,3.53268,R,ugm-3,4.92863,R,ugm-3
09-01-2023,24:00,1.44411,R,ugm-3,4.01900,R,ugm-3,6.23327,R,ugm-3
10-01-2023,01:00,1.19298,R,ugm-3,5.56200,R,ugm-3,7.39121,R,ugm-3
10-01-2023,02:00,0.81625,R,ugm-3,1.69526,R,ugm-3,2.94682,R,ugm-3
10-01-2023,03:00,0.65928,R,ugm-3,1.16300,R,ugm-3,2.17389,R,ugm-3
10-01-2023,04:00,0.47091,R,ugm-3,1.88661,R,ugm-3,2.60866,R,ugm-3
10-01-2023,05:00,0.72207,R,ugm-3,2.75753,R,ugm-3,3.86468,R,ugm-3
10-01-2023,06:00,1.03601,R,ugm-3,2.71093,R,ugm-3,4.29946,R,ugm-3
10-01-2023,07:00,1.53832,R,ugm-3,8.26916,R,ugm-3,10.62788,R,ugm-3
10-01-2023,08:00,4.39520,R,ugm-3,18.04308,R,ugm-3,24.78229,R,ugm-3
10-01-2023,09:00,6.53001,R,ugm-3,17.04025,R,ugm-3,27.05279,R,ugm-3
10-01-2023,10:00,5.21145,R,ugm-3,17.95092,R,ugm-3,25.94169,R,ugm-3
10-01-2023,11:00,3.01385,R,ugm-3,16.73121,R,ugm-3,21.35238,R,ugm-3
10-01-2023,12:00,8.16251,R,ugm-3,17.58056,R,ugm-3,30.09623,R,ugm-3
10-01-2023,13:00,14.12742,R,ugm-3,32.78200,R,ugm-3,54.44374,R,ugm-3
10-01-2023,14:00,16.79593,R,ugm-3,35.88831,R,ugm-3,61.64172,R,ugm-3
10-01-2023,15:00,25.99445,R,ugm-3,40.76937,R,ugm-3,80.62698,R,ugm-3
10-01-2023,16:00,23.10618,R,ugm-3,41.18838,R,ugm-3,76.61737,R,ugm-3
10-01-2023,17:00,1.97784,R,ugm-3,5.46966,R,ugm-3,8.50231,R,ugm-3
10-01-2023,18:00,3.23361,R,ugm-3,6.29776,R,ugm-3,11.25589,R,ugm-3
10-01-2023,19:00,4.89751,R,ugm-3,11.04108,R,ugm-3,18.55049,R,ugm-3
10-01-2023,20:00,5.43121,R,ugm-3,12.15509,R,ugm-3,20.48283,R,ugm-3
10-01-2023,21:00,1.75808,R,ugm-3,4.35737,R,ugm-3,7.05305,R,ugm-3
10-01-2023,22:00,2.22899,R,ugm-3,4.64979,R,ugm-3,8.06753,R,ugm-3
10-01-2023,23:00,1.38135,R,ugm-3,2.76113,R,ugm-3,4.87916,R,ugm-3
10-01-2023,24:00,1.13019,R,ugm-3,1.93851,R,ugm-3,3.67145,R,ugm-3
11-01-2023,01:00,0.81627,R,ugm-3,1.21157,R,ugm-3,2.46316,R,ugm-3
11-01-2023,02:00,0.65929,R,ugm-3,1.11418,R,ugm-3,2.12508,R,ugm-3
11-01-2023,03:00,0.62790,R,ugm-3,1.30721,R,ugm-3,2.26997,R,ugm-3
11-01-2023,04:00,0.94185,R,ugm-3,1.45369,R,ugm-3,2.89783,R,ugm-3
11-01-2023,05:00,0.81627,R,ugm-3,0.92178,R,ugm-3,2.17338,R,ugm-3
11-01-2023,06:00,0.43953,R,ugm-3,1.74093,R,ugm-3,2.41486,R,ugm-3
11-01-2023,07:00,0.37674,R,ugm-3,1.78891,R,ugm-3,2.36656,R,ugm-3
11-01-2023,08:00,0.69069,R,ugm-3,2.46666,R,ugm-3,3.52570,R,ugm-3
11-01-2023,09:00,0.91045,R,ugm-3,2.56436,R,ugm-3,3.96037,R,ugm-3
11-01-2023,10:00,1.00464,R,ugm-3,2.22676,R,ugm-3,3.76718,R,ugm-3
11-01-2023,11:00,1.22440,R,ugm-3,2.90403,R,ugm-3,4.78143,R,ugm-3
11-01-2023,12:00,1.44417,R,ugm-3,3.24323,R,ugm-3,5.45759,R,ugm-3
11-01-2023,13:00,1.13022,R,ugm-3,3.09675,R,ugm-3,4.82972,R,ugm-3
11-01-2023,14:00,1.78951,R,ugm-3,3.77625,R,ugm-3,6.52013,R,ugm-3
11-01-2023,15:00,1.06743,R,ugm-3,3.38621,R,ugm-3,5.02291,R,ugm-3
11-01-2023,16:00,1.38138,R,ugm-3,3.82248,R,ugm-3,5.94056,R,ugm-3
11-01-2023,17:00,1.19301,R,ugm-3,3.14536,R,ugm-3,4.97461,R,ugm-3
11-01-2023,18:00,0.59650,R,ugm-3,3.04575,R,ugm-3,3.96037,R,ugm-3
11-01-2023,19:00,0.40813,R,ugm-3,2.22374,R,ugm-3,2.84954,R,ugm-3
11-01-2023,20:00,1.06743,R,ugm-3,1.88900,R,ugm-3,3.52570,R,ugm-3
11-01-2023,21:00,1.00464,R,ugm-3,1.35741,R,ugm-3,2.89783,R,ugm-3
11-01-2023,22:00,0.34534,R,ugm-3,1.88534,R,ugm-3,2.41486,R,ugm-3
11-01-2023,23:00,0.59650,R,ugm-3,1.64513,R,ugm-3,2.55975,R,ugm-3
11-01-2023,24:00,0.53371,R,ugm-3,1.78970,R,ugm-3,2.60805,R,ugm-3
12-01-2023,01:00,0.53373,R,ugm-3,1.35450,R,ugm-3,2.17287,R,ugm-3
12-01-2023,02:00,1.22443,R,ugm-3,2.95116,R,ugm-3,4.82859,R,ugm-3
12-01-2023,03:00,0.62791,R,ugm-3,1.30665,R,ugm-3,2.26944,R,ugm-3
12-01-2023,04:00,0.69070,R,ugm-3,1.25866,R,ugm-3,2.31772,R,ugm-3
12-01-2023,05:00,0.56512,R,ugm-3,1.40293,R,ugm-3,2.26944,R,ugm-3
12-01-2023,06:00,0.65931,R,ugm-3,1.93452,R,ugm-3,2.94544,R,ugm-3
12-01-2023,07:00,0.97326,R,ugm-3,4.68828,R,ugm-3,6.18059,R,ugm-3
12-01-2023,08:00,2.19769,R,ugm-3,8.41201,R,ugm-3,11.78176,R,ugm-3
12-01-2023,09:00,1.94653,R,ugm-3,13.38429,R,ugm-3,16.36892,R,ugm-3
12-01-2023,10:00,1.78955,R,ugm-3,12.85241,R,ugm-3,15.59634,R,ugm-3
12-01-2023,11:00,1.35001,R,ugm-3,12.02949,R,ugm-3,14.09948,R,ugm-3
12-01-2023,12:00,,,,,,,,,
12-01-2023,13:00,0.94187,R,ugm-3,2.75670,R,ugm-3,4.20087,R,ugm-3
12-01-2023,14:00,1.13024,R,ugm-3,2.22643,R,ugm-3,3.95944,R,ugm-3
12-01-2023,15:00,0.59652,R,ugm-3,2.32051,R,ugm-3,3.23515,R,ugm-3
12-01-2023,16:00,0.50233,R,ugm-3,2.85121,R,ugm-3,3.62144,R,ugm-3
12-01-2023,17:00,0.56512,R,ugm-3,2.75494,R,ugm-3,3.62144,R,ugm-3
12-01-2023,18:00,0.62791,R,ugm-3,2.07923,R,ugm-3,3.04201,R,ugm-3
12-01-2023,19:00,0.50233,R,ugm-3,1.93378,R,ugm-3,2.70401,R,ugm-3
12-01-2023,20:00,1.09885,R,ugm-3,1.74343,R,ugm-3,3.42830,R,ugm-3
12-01-2023,21:00,3.51631,R,ugm-3,10.68761,R,ugm-3,16.07920,R,ugm-3
12-01-2023,22:00,1.38141,R,ugm-3,2.32418,R,ugm-3,4.44230,R,ugm-3
12-01-2023,23:00,2.32327,R,ugm-3,4.79116,R,ugm-3,8.35346,R,ugm-3
12-01-2023,24:00,1.66397,R,ugm-3,5.94694,R,ugm-3,8.49832,R,ugm-3
13-01-2023,01:00,1.41190,R,ugm-3,3.82023,R,ugm-3,5.98510,R,ugm-3
13-01-2023,02:00,1.06677,R,ugm-3,1.88781,R,ugm-3,3.52349,R,ugm-3
13-01-2023,03:00,1.38052,R,ugm-3,2.08246,R,ugm-3,4.19923,R,ugm-3
13-01-2023,04:00,0.84714,R,ugm-3,1.30749,R,ugm-3,2.60642,R,ugm-3
13-01-2023,05:00,0.94126,R,ugm-3,2.12851,R,ugm-3,3.57175,R,ugm-3
13-01-2023,06:00,1.97665,R,ugm-3,3.05081,R,ugm-3,6.08164,R,ugm-3
13-01-2023,07:00,4.73769,R,ugm-3,9.19468,R,ugm-3,16.45903,R,ugm-3
13-01-2023,08:00,23.37470,R,ugm-3,41.96563,R,ugm-3,77.80634,R,ugm-3
13-01-2023,09:00,36.01900,R,ugm-3,53.80670,R,ugm-3,109.03506,R,ugm-3
13-01-2023,10:00,18.91939,R,ugm-3,28.91103,R,ugm-3,57.92035,R,ugm-3
13-01-2023,11:00,12.55017,R,ugm-3,25.35534,R,ugm-3,44.59867,R,ugm-3
13-01-2023,12:00,14.58958,R,ugm-3,23.09710,R,ugm-3,45.46748,R,ugm-3
13-01-2023,13:00,14.36995,R,ugm-3,23.53040,R,ugm-3,45.56401,R,ugm-3
13-01-2023,14:00,15.59359,R,ugm-3,28.41155,R,ugm-3,52.32139,R,ugm-3
13-01-2023,15:00,18.10363,R,ugm-3,28.76211,R,ugm-3,56.52061,R,ugm-3
13-01-2023,16:00,4.42394,R,ugm-3,15.56433,R,ugm-3,22.34760,R,ugm-3
13-01-2023,17:00,11.13828,R,ugm-3,20.18364,R,ugm-3,37.26209,R,ugm-3
13-01-2023,18:00,12.17367,R,ugm-3,27.91159,R,ugm-3,46.57762,R,ugm-3
13-01-2023,19:00,9.00475,R,ugm-3,21.47606,R,ugm-3,35.28315,R,ugm-3
13-01-2023,20:00,9.16163,R,ugm-3,31.27504,R,ugm-3,45.32268,R,ugm-3
13-01-2023,21:00,0.56476,R,ugm-3,4.68475,R,ugm-3,5.55070,R,ugm-3
13-01-2023,22:00,1.44327,R,ugm-3,9.95029,R,ugm-3,12.16327,R,ugm-3
13-01-2023,23:00,1.38052,R,ugm-3,10.72225,R,ugm-3,12.83901,R,ugm-3
13-01-2023,24:00,0.87851,R,ugm-3,5.84474,R,ugm-3,7.19178,R,ugm-3
14-01-2023,01:00,1.12879,R,ugm-3,7.72583,R,ugm-3,9.45661,R,ugm-3
14-01-2023,02:00,1.09743,R,ugm-3,5.31325,R,ugm-3,6.99597,R,ugm-3
14-01-2023,03:00,1.03472,R,ugm-3,3.96197,R,ugm-3,5.54852,R,ugm-3
14-01-2023,04:00,0.65846,R,ugm-3,2.89847,R,ugm-3,3.90809,R,ugm-3
14-01-2023,05:00,0.84659,R,ugm-3,3.71971,R,ugm-3,5.01780,R,ugm-3
14-01-2023,06:00,1.81861,R,ugm-3,4.49696,R,ugm-3,7.28545,R,ugm-3
14-01-2023,07:00,2.41436,R,ugm-3,6.76786,R,ugm-3,10.46982,R,ugm-3
14-01-2023,08:00,1.81861,R,ugm-3,4.93119,R,ugm-3,7.71968,R,ugm-3
14-01-2023,09:00,1.37963,R,ugm-3,3.38487,R,ugm-3,5.50028,R,ugm-3
14-01-2023,10:00,1.19150,R,ugm-3,3.09436,R,ugm-3,4.92130,R,ugm-3
14-01-2023,11:00,6.02021,R,ugm-3,10.55083,R,ugm-3,19.78169,R,ugm-3
14-01-2023,12:00,3.32366,R,ugm-3,6.09734,R,ugm-3,11.19354,R,ugm-3
14-01-2023,13:00,1.37963,R,ugm-3,3.67436,R,ugm-3,5.78976,R,ugm-3
14-01-2023,14:00,1.66183,R,ugm-3,3.67589,R,ugm-3,6.22400,R,ugm-3
14-01-2023,15:00,0.97201,R,ugm-3,2.22470,R,ugm-3,3.71510,R,ugm-3
14-01-2023,16:00,1.72454,R,ugm-3,1.79456,R,ugm-3,4.43882,R,ugm-3
14-01-2023,17:00,1.34828,R,ugm-3,2.08200,R,ugm-3,4.14933,R,ugm-3
14-01-2023,18:00,0.94066,R,ugm-3,1.59730,R,ugm-3,3.03963,R,ugm-3
14-01-2023,19:00,1.47370,R,ugm-3,2.56516,R,ugm-3,4.82480,R,ugm-3
14-01-2023,20:00,1.72454,R,ugm-3,4.01397,R,ugm-3,6.65823,R,ugm-3
14-01-2023,21:00,1.59912,R,ugm-3,3.57905,R,ugm-3,6.03100,R,ugm-3
14-01-2023,22:00,1.34828,R,ugm-3,2.95047,R,ugm-3,5.01780,R,ugm-3
14-01-2023,23:00,1.37963,R,ugm-3,2.99888,R,ugm-3,5.11429,R,ugm-3
14-01-2023,24:00,2.97875,R,ugm-3,10.63078,R,ugm-3,15.19813,R,ugm-3
15-01-2023,01:00,2.22479,R,ugm-3,5.22171,R,ugm-3,8.63301,R,ugm-3
15-01-2023,02:00,2.03678,R,ugm-3,5.79936,R,ugm-3,8.92238,R,ugm-3
15-01-2023,03:00,1.62943,R,ugm-3,5.50761,R,ugm-3,8.00603,R,ugm-3
15-01-2023,04:00,1.53542,R,ugm-3,3.96373,R,ugm-3,6.31801,R,ugm-3
15-01-2023,05:00,1.50409,R,ugm-3,4.78345,R,ugm-3,7.08968,R,ugm-3
15-01-2023,06:00,1.72343,R,ugm-3,4.83295,R,ugm-3,7.47551,R,ugm-3
15-01-2023,07:00,1.91144,R,ugm-3,6.76321,R,ugm-3,9.69405,R,ugm-3
15-01-2023,08:00,2.19346,R,ugm-3,5.46267,R,ugm-3,8.82593,R,ugm-3
15-01-2023,09:00,3.38419,R,ugm-3,8.50804,R,ugm-3,13.69706,R,ugm-3
15-01-2023,10:00,6.42370,R,ugm-3,18.36449,R,ugm-3,28.21402,R,ugm-3
15-01-2023,11:00,8.52315,R,ugm-3,17.99089,R,ugm-3,31.05954,R,ugm-3
15-01-2023,12:00,10.40326,R,ugm-3,16.94080,R,ugm-3,32.89224,R,ugm-3
15-01-2023,13:00,11.40598,R,ugm-3,18.10414,R,ugm-3,35.59308,R,ugm-3
15-01-2023,14:00,9.49454,R,ugm-3,22.91592,R,ugm-3,37.47401,R,ugm-3
15-01-2023,15:00,19.96047,R,ugm-3,39.27833,R,ugm-3,69.88396,R,ugm-3
15-01-2023,16:00,36.81877,R,ugm-3,56.30498,R,ugm-3,112.75963,R,ugm-3
15-01-2023,17:00,36.97544,R,ugm-3,62.57568,R,ugm-3,119.27056,R,ugm-3
15-01-2023,18:00,72.82282,R,ugm-3,69.48840,R,ugm-3,181.14849,R,ugm-3
15-01-2023,19:00,62.98359,R,ugm-3,72.75887,R,ugm-3,169.33236,R,ugm-3
15-01-2023,20:00,46.84600,R,ugm-3,58.67840,R,ugm-3,130.50794,R,ugm-3
15-01-2023,21:00,30.48907,R,ugm-3,52.69914,R,ugm-3,99.44840,R,ugm-3
15-01-2023,22:00,31.46046,R,ugm-3,51.11324,R,ugm-3,99.35194,R,ugm-3
15-01-2023,23:00,22.81197,R,ugm-3,45.51650,R,ugm-3,80.49437,R,ugm-3